San Angelo, TX

7:56 AM CDT on June 21, 2018 (GMT -0500)
San Angelo Regional-Mathis

Weather History for KSJT - September, 2017

Change the Weather History Date:

Wednesday, September 13, 2017

  Actual Average Record
Temperature  
Mean Temperature 80 °F 76 °F  
Max Temperature 101 °F 89 °F 103 °F (1930)
Min Temperature 59 °F 64 °F 51 °F (1940)
Degree Days  
Heating Degree Days 0 0  
Month to date heating degree days 0 0  
Since 1 July heating degree days 0 0  
Cooling Degree Days 15 12  
Month to date cooling degree days 130 175  
Year to date cooling degree days 2404 2211  
Growing Degree Days 29 (Base 50)    
Moisture  
Dew Point 51 °F    
Average Humidity 45    
Maximum Humidity 72    
Minimum Humidity 17    
Precipitation  
Precipitation 0.00 in 0.08 in 1.32 in (1989)
Month to date precipitation 0.80 1.17  
Year to date precipitation 12.90 15.24  
Sea Level Pressure  
Sea Level Pressure 29.76 in    
Wind  
Wind Speed 5 mph (ESE)    
Max Wind Speed 14 mph    
Max Gust Speed 17 mph    
Visibility 10 miles    
Events      
T = Trace of Precipitation, MM = Missing Value Source: NWS Daily Summary

Daily Weather History Graph

Daily Weather History Graph

Search for Another Location

Airport or City:

Astronomy

Sep. 13, 2017 Rise Set
Actual Time 7:25 AM CDT 7:49 PM CDT
Civil Twilight 7:00 AM CDT 8:14 PM CDT
Nautical Twilight 6:32 AM CDT 8:42 PM CDT
Astronomical Twilight 6:03 AM CDT 9:11 PM CDT
Moon 12:45 AM CDT (9/13) 2:51 PM CDT (9/13)
Length of Visible Light 13h 13m
Length of Day
12h 24m
Last Quarter, 45% of the Moon is Illuminated
Sep 13
Last Quarter
Sep 20
New
Sep 27
First Quarter
Oct 5
Full
Oct 12
Last Quarter

Hourly Weather History & Observations

Time (CDT) Temp. Heat Index Dew Point Humidity Pressure Visibility Wind Dir Wind Speed Gust Speed Precip Events Conditions
12:51 AM 69.1 °F - 52.0 °F 54% 29.80 in 10.0 mi South 5.8 mph - N/A   Clear
1:51 AM 66.0 °F - 52.0 °F 60% 29.79 in 10.0 mi Calm Calm - N/A   Clear
2:51 AM 66.0 °F - 52.0 °F 60% 29.80 in 10.0 mi North 4.6 mph - N/A   Clear
3:51 AM 63.0 °F - 51.1 °F 65% 29.80 in 10.0 mi Calm Calm - N/A   Clear
4:51 AM 62.1 °F - 51.1 °F 67% 29.80 in 10.0 mi Calm Calm - N/A   Clear
5:51 AM 61.0 °F - 48.9 °F 64% 29.79 in 10.0 mi Calm Calm - N/A   Clear
6:51 AM 62.1 °F - 50.0 °F 65% 29.80 in 10.0 mi ENE 4.6 mph - N/A   Clear
7:51 AM 59.0 °F - 50.0 °F 72% 29.82 in 10.0 mi Calm Calm - N/A   Clear
8:51 AM 69.1 °F - 52.0 °F 54% 29.83 in 10.0 mi Calm Calm - N/A   Clear
9:51 AM 75.0 °F - 50.0 °F 41% 29.83 in 10.0 mi Calm Calm - N/A   Clear
10:51 AM 82.0 °F - 51.1 °F 34% 29.82 in 10.0 mi East 3.5 mph - N/A   Clear
11:51 AM 88.0 °F 85.7 °F 53.1 °F 30% 29.81 in 10.0 mi ENE 5.8 mph - N/A   Clear
12:51 PM 93.0 °F 91.1 °F 55.0 °F 28% 29.78 in 10.0 mi East 8.1 mph - N/A   Clear
1:51 PM - - - N/A% 29.82 in 10.0 mi ENE 8.1 mph - N/A   Clear
2:51 PM 95.0 °F - 48.0 °F 20% 29.72 in 10.0 mi SE 11.5 mph - N/A   Clear
3:51 PM 96.1 °F - 48.0 °F 19% 29.70 in 10.0 mi SSE 10.4 mph - N/A   Clear
4:51 PM 97.0 °F - 48.9 °F 19% 29.68 in 10.0 mi NE 9.2 mph - N/A   Clear
5:51 PM 99.0 °F - 46.9 °F 17% 29.67 in 10.0 mi ESE 8.1 mph - N/A   Clear
6:51 PM 97.0 °F - 46.9 °F 18% 29.67 in 10.0 mi ESE 10.4 mph - N/A   Clear
7:51 PM 90.0 °F - 51.1 °F 26% 29.69 in 10.0 mi East 8.1 mph - N/A   Clear
8:51 PM 86.0 °F - 51.1 °F 30% 29.70 in 10.0 mi ESE 10.4 mph - N/A   Clear
9:51 PM 80.1 °F - 52.0 °F 38% 29.72 in 10.0 mi South 3.5 mph - N/A   Clear
10:51 PM 78.1 °F - 52.0 °F 40% 29.72 in 10.0 mi SE 4.6 mph - N/A   Clear
11:51 PM 79.0 °F - 52.0 °F 39% 29.72 in 10.0 mi SSE 9.2 mph - N/A   Clear